Time,TemperatureF,DewpointF,PressureIn,WindDirection,WindDirectionDegrees,WindSpeedMPH,WindSpeedGustMPH,Humidity,HourlyPrecipIn,Conditions,Clouds,dailyrainin,SoftwareType,DateUTC
2013-02-15 00:00:00,47.8,20.1,30.14,WNW,298,3.0,5.0,33,0.00,,---,0.00,VWS V13.01,2013-02-15 08:00:00,
2013-02-15 00:30:00,45.8,19.0,30.14,SW,228,1.0,5.0,34,0.00,,---,0.00,VWS V13.01,2013-02-15 08:30:00,
2013-02-15 01:00:00,44.0,18.8,30.15,SW,228,0.0,4.0,36,0.00,,---,0.00,VWS V13.01,2013-02-15 09:00:00,
2013-02-15 03:00:00,42.2,20.2,30.15,SE,146,1.0,3.0,41,0.00,,---,0.00,VWS V13.01,2013-02-15 11:00:00,
2013-02-15 03:30:00,39.7,19.0,30.15,SE,145,0.0,4.0,43,0.00,,---,0.00,VWS V13.01,2013-02-15 11:30:00,
2013-02-15 04:01:00,38.9,18.9,30.15,SE,145,1.0,4.0,44,0.00,,---,0.00,VWS V13.01,2013-02-15 12:01:00,
2013-02-15 04:30:00,36.1,17.8,30.17,SE,145,1.0,3.0,47,0.00,,---,0.00,VWS V13.01,2013-02-15 12:30:00,
2013-02-15 05:00:00,35.0,19.6,30.17,SE,145,0.0,3.0,53,0.00,,---,0.00,VWS V13.01,2013-02-15 13:00:00,
2013-02-15 05:30:00,36.0,21.4,30.18,SE,145,0.0,3.0,55,0.00,,---,0.00,VWS V13.01,2013-02-15 13:30:00,
2013-02-15 07:00:00,36.3,20.4,30.19,SE,145,2.0,2.0,52,0.00,,---,0.00,VWS V13.01,2013-02-15 15:00:00,
2013-02-15 07:30:00,40.4,21.9,30.21,South,183,1.0,4.0,47,0.00,,---,0.00,VWS V13.01,2013-02-15 15:30:00,
2013-02-15 08:00:00,46.1,22.5,30.21,South,183,0.0,3.0,39,0.00,,---,0.00,VWS V13.01,2013-02-15 16:00:00,
2013-02-15 08:30:00,50.9,22.1,30.23,North,6,2.0,10.0,32,0.00,,---,0.00,VWS V13.01,2013-02-15 16:30:00,
2013-02-15 09:00:00,55.0,22.5,30.23,NNW,330,5.0,10.0,28,0.00,,---,0.00,VWS V13.01,2013-02-15 17:00:00,
2013-02-15 09:30:00,57.2,23.5,30.23,NNW,346,5.0,12.0,27,0.00,,---,0.00,VWS V13.01,2013-02-15 17:30:00,
2013-02-15 10:00:00,59.3,23.5,30.21,NNE,28,5.0,12.0,25,0.00,,---,0.00,VWS V13.01,2013-02-15 18:00:00,
2013-02-15 10:30:00,61.1,20.9,30.20,NNE,17,8.0,13.0,21,0.00,,---,0.00,VWS V13.01,2013-02-15 18:30:00,
2013-02-15 11:00:00,62.8,21.2,30.22,North,350,4.0,17.0,20,0.00,,---,0.00,VWS V13.01,2013-02-15 19:00:00,
2013-02-15 11:30:00,64.4,21.3,30.21,North,6,7.0,17.0,19,0.00,,---,0.00,VWS V13.01,2013-02-15 19:30:00,
2013-02-15 12:00:00,66.0,19.9,30.20,North,8,10.0,18.0,17,0.00,,---,0.00,VWS V13.01,2013-02-15 20:00:00,
2013-02-15 12:30:00,66.8,20.6,30.18,North,0,4.0,22.0,17,0.00,,---,0.00,VWS V13.01,2013-02-15 20:30:00,
2013-02-15 13:00:00,67.5,19.8,30.16,North,355,4.0,21.0,16,0.00,,---,0.00,VWS V13.01,2013-02-15 21:00:00,
2013-02-15 13:30:00,68.3,20.4,30.16,NNE,14,8.0,18.0,16,0.00,,---,0.00,VWS V13.01,2013-02-15 21:30:00,
2013-02-15 14:00:00,69.0,21.0,30.15,NNE,24,7.0,19.0,16,0.00,,---,0.00,VWS V13.01,2013-02-15 22:00:00,
2013-02-15 15:00:00,69.5,18.2,30.15,NNE,19,10.0,25.0,14,0.00,,---,0.00,VWS V13.01,2013-02-15 23:00:00,
2013-02-15 15:30:00,68.7,17.6,30.14,NNE,25,7.0,21.0,14,0.00,,---,0.00,VWS V13.01,2013-02-15 23:30:00,
2013-02-15 16:00:00,68.3,18.9,30.15,NNW,338,5.0,19.0,15,0.00,,---,0.00,VWS V13.01,2013-02-16 00:00:00,
2013-02-15 16:30:00,67.3,18.1,30.15,NNE,21,9.0,13.0,15,0.00,,---,0.00,VWS V13.01,2013-02-16 00:30:00,
2013-02-15 17:00:00,66.3,17.3,30.15,NNE,18,5.0,11.0,15,0.00,,---,0.00,VWS V13.01,2013-02-16 01:00:00,
2013-02-15 17:30:00,64.7,16.0,30.16,NNE,12,1.0,11.0,15,0.00,,---,0.00,VWS V13.01,2013-02-16 01:30:00,
2013-02-15 18:00:00,60.5,15.4,30.16,North,358,1.0,5.0,17,0.00,,---,0.00,VWS V13.01,2013-02-16 02:00:00,
2013-02-15 18:30:00,57.1,14.0,30.16,NNW,336,3.0,5.0,18,0.00,,---,0.00,VWS V13.01,2013-02-16 02:30:00,
2013-02-15 19:00:00,56.0,13.1,30.18,North,355,2.0,5.0,18,0.00,,---,0.00,VWS V13.01,2013-02-16 03:00:00,